SCP
0 0 0 0 0 0 0 -0 -0 0 0 0 0 0 0 0 0 0 0 0 0 0 0 0 0 0 0 0 0 0 -0 -0 0 0 0 0 0 0 0 0 0 0 0 0 0 0 0 0 0 0 0 0 0 0
0 0 0 0 0 0 0 0 0 0 0 0 0 0 0 0 0 0 0 0 0 0 0 0 0 0 0 0 0 0 0 -0 -0 0 0 0 0 0 0 0 0 0 -0 0 0 0 -0 0 0 0 0 0 0 0
0 0 0 0 0 0 0 0 -0 0 0 0 0 0 0 0 0 0 0 0 0 0 0 0 0 0 0 0 0 0 0 -0 -0 -0 0 0 0 0 0 0 0 0 0 0 0 0 0 0 0 0 0 0 0 0
0 -0 0 0 0 0 0 0 0 -0 0 0 0 0 0 0 0 0 0 0 0 0 0 0 0 0 0 0 0 0 0 0 -0 0 -0 0 0 0 0 0 -0 -0 -0 0 0 0 0 0 0 0 0 0 0 0
-0 -0 -0 -0 0 0 0 0 0 -0 0 0 0 0 0 0 0 0 0 0 0 0 0 0 0 0 0 0 0 0 0 0 0 0 0 0 0 0 0 0 -0 -0 0 -0 -0 0 0 0 0 0 0 0 0 0
-0 -0 -0 0 0 0 0 0 -0 -0 -0 0 0 0 0 0 0 0 0 0 0 0 0 0 0 0 0 0 0 0 0 0 0 0 0 0 0 0 0 0 0 0 0 0 0 0 0 0 0 0 0 0 0 0
-0 -0 -0 0 0 0 0 0 -0 -0 0 0 0 0 0 0 0 0 0 0 0 0 0 0 0 0 0 0 0 0 0 0 0 0 0 0 0 0 0 0 -0 -0 0 0 0 0 0 0 -0 -0 0 0 0 0
-0 -0 -0 0 0 0 0 0 0 0 0 0 0 0 -0 0 0 0 0 0 0 0 0 0 0 0 0 0 0 0 0 0 0 0 0 0 0 0 0 0 0 -0 -0 -0 0 0 0 0 0 0 -0 -0 0 0
-0 -0 -0 0 0 -0 -0 0 0 0 0 0 0 0 0 0 0 0 0 0 0 0 0 0 0 0 0 0 0 0 0 0 0 0 0 0 0 0 0 0 -0 -0 -0 -0 -0 0 0 0 0 0 0 0 0 0
-0 -0 -0 -0 0 -0 0 0 0 0 0 0 0 0 0 0 -0 0 0 0 0 0 0 0 0 0 0 0 0 0 0 0 0 0 0 0 0 0 0 0 0 -0 -0 -0 -0 -0 -0 0 0 0 0 0 0 0
-0 -0 -0 -0 -0 -0 0 0 0 0 0 0 0 0 0 0 0 0 0 0 0 0 0 0 0 0 0 0 0 0 0 0 0 0 0 0 0 0 0 0 0 -0 -0 0 0 -0 -0 0 0 0 0 0 0 0
-0 -0 -0 -0 -0 0 0 0 0 0 0 0 0 0 0 0 0 0 0 0 0 0 0 0 0 0 0 0 0 0 0 0 0 0 0 0 0 0 0 0 0 0 -0 -0 -0 0 -0 -0 -0 0 0 0 0 0
-0 -0 -0 -0 -0 0 0 0 0 0 0 0 0 0 0 0 0 0 0 0 0 0 0 0 0 0 0 0 0 0 0 0 0 0 0 0 0 0 0 0 0 0 0 -0 -0 -0 0 -0 -0 -0 -0 0 0 0
-0 -0 -0 -0 -0 0 0 0 0 0 0 0 0 0 0 0 0 0 0 0 -0 -0 0 0 0 0 0 0 0 0 0 0 0 0 0 0 0 0 0 0 0 0 0 0 -0 -0 0 0 0 0 -0 -0 -0 0
-0 -0 -0 -0 0 0 0 0 0 0 0 0 0 0 0 -0 -0 0 0 0 0 0 0 0 0 0 0 0 0 0 0 0 0 0 0 0 0 0 -0 0 0 0 0 0 0 -0 -0 0 0 0 0 0 0 -0
-0 -0 0 0 0 -0 -0 0 0 0 0 -0 0 0 0 0 0 0 0 0 0 0 0 0 0 0 0 0 0 0 0 0 0 0 0 0 0 -0 -0 -0 0 0 0 0 0 0 -0 -0 -0 0 0 0 -0 -0
-0 0 -0 -0 -0 -0 0 0 0 0 0 0 0 0 0 0 0 0 0 0 0 0 0 0 0 0 0 0 0 0 0 0 0 0 0 0 0 0 0 -0 -0 -0 0 0 -0 -0 -0 0 -0 -0 -0 -0 -0 -0
0 -0 0 -0 -0 0 0 0 0 0 0 0 0 0 0 0 0 0 0 0 0 0 0 0 0 0 0 0 0 0 0 0 0 0 0 0 0 0 0 0 -0 -0 -0 -0 -0 -0 -0 -0 -0 0 0 -0 0 -0
-0 -0 -0 -0 0 0 0 0 -0 0 0 0 0 0 0 0 0 0 0 0 0 0 0 0 0 0 0 0 0 0 0 0 0 0 0 0 0 0 0 0 -0 -0 0 -0 0 0 -0 -0 -0 -0 -0 0 0 0
-0 -0 -0 0 0 0 0 0 0 0 0 0 0 0 0 0 0 0 0 0 0 0 0 0 0 0 0 0 0 0 0 0 0 0 0 0 0 0 0 0 0 0 0 0 0 0 0 0 0 -0 -0 -0 -0 0
-0 0 0 0 0 0 0 0 0 0 0 0 0 0 0 0 0 0 0 0 0 0 0 0 0 0 0 0 0 0 0 -0 0 0 0 0 0 0 0 0 0 0 0 0 0 0 0 0 0 0 0 -0 -0 0
0 -0 0 0 0 0 0 0 0 0 0 0 0 0 0 0 0 0 0 0 0 0 0 0 0 0 0 0 0 0 0 0 -0 0 0 0 0 0 0 0 0 0 0 0 0 0 0 0 0 0 0 -0 -0 -0
-0 0 0 0 0 0 0 0 0 0 0 0 0 0 0 0 0 0 0 0 0 0 0 0 0 0 0 0 0 0 0 0 0 0 0 0 0 0 0 0 0 0 0 0 0 0 0 0 0 0 0 0 0 0
0 0 0 0 0 0 0 0 0 0 0 0 0 0 0 0 0 0 0 0 0 0 0 1 0 0 0 0 0 0 0 0 0 0 0 0 0 0 0 0 0 0 0 0 0 0 0 0 0 0 0 0 0 0
0 0 0 0 0 0 0 0 0 0 0 0 0 0 1 1 0 0 -0 0 0 0 0 0 0 0 0 0 0 0 0 0 0 0 0 0 0 0 0 0 0 0 0 0 0 0 0 0 0 0 0 0 0 0
0 0 0 0 0 0 0 0 0 0 0 0 0 0 1 0 0 0 0 0 0 0 1 0 0 0 0 0 0 0 0 0 0 0 0 0 0 0 0 0 0 0 0 0 0 0 0 0 0 0 0 0 0 0
0 0 0 0 0 0 0 0 0 0 0 0 0 0 0 0 0 0 0 0 0 1 1 0 0 0 0 0 0 0 0 0 0 0 0 0 0 0 0 0 0 0 0 0 0 0 0 0 0 0 0 0 0 0
0 0 0 0 0 0 0 0 0 0 0 0 0 0 0 0 0 0 -0 0 0 0 0 0 0 0 0 0 0 0 0 0 0 0 0 0 0 0 0 0 0 0 0 0 0 0 0 0 0 0 0 0 0 0
0 0 0 0 0 0 0 0 0 0 0 0 0 0 0 0 0 0 0 0 0 0 0 0 0 0 0 0 0 0 0 0 0 0 0 0 0 0 0 0 0 0 0 0 0 0 0 0 0 0 0 0 0 0
-0 0 0 0 0 0 0 0 0 0 0 0 0 0 0 0 -0 -0 0 0 0 0 0 0 0 0 0 0 0 0 0 0 0 0 0 0 0 0 0 0 0 0 0 0 0 0 0 0 0 0 0 0 0 0
0 0 0 0 0 0 0 0 0 0 0 0 0 0 0 -0 0 0 0 0 0 0 0 0 0 0 0 0 0 0 0 0 0 0 0 0 0 0 0 0 0 0 0 0 0 0 0 0 0 0 0 0 0 0
0 0 0 0 0 0 0 0 0 0 0 0 0 0 0 0 0 0 0 0 0 0 0 0 0 0 0 0 0 0 0 0 0 0 0 0 0 0 0 0 0 0 0 0 0 0 0 0 0 0 0 0 0 0
0 0 0 0 0 0 0 0 0 0 0 0 0 0 0 0 0 0 0 0 0 0 0 0 0 0 0 0 0 0 0 0 0 0 0 0 0 0 0 0 0 0 0 0 0 -0 -0 -0 -0 0 0 0 0 -0
Wind_Speed_500mb
44 48 52 58 62 65 65 61 58 53 50 48 46 45 46 37 22 18 27 26 25 13 34 27 17 18 19 11 7 31 21 18 13 16 9 7 7 11 9 8 21 7 6 5 5 8 10 44 29 30 7 39 44 52
42 48 57 61 62 63 59 53 51 49 50 51 52 52 47 28 14 10 15 14 19 31 27 45 29 23 24 31 25 12 11 28 17 8 9 7 13 2 20 11 24 11 10 5 21 8 4 22 36 30 49 36 43 46
45 55 59 61 60 56 52 48 48 49 54 56 53 46 30 14 6 4 4 12 18 10 20 16 19 26 13 9 11 11 9 25 25 24 16 7 11 14 10 9 20 23 26 10 17 21 34 43 38 59 67 50 41 35
48 56 57 58 57 51 46 46 49 54 57 54 43 21 19 15 11 14 5 10 16 8 5 6 27 31 19 6 11 14 24 26 25 21 9 5 7 25 8 13 7 10 23 36 24 21 51 42 49 62 68 69 61 38
52 56 54 55 53 46 41 46 53 57 55 42 16 19 20 15 21 15 1 6 12 9 6 17 17 27 24 23 5 1 12 26 27 15 6 5 11 10 10 10 6 24 24 15 19 66 45 67 77 69 65 70 59 58
56 55 52 52 46 40 43 51 56 55 44 16 14 23 22 23 15 6 5 8 13 6 3 6 13 35 29 15 22 28 17 13 7 6 8 15 15 15 9 7 12 55 72 64 63 64 93 95 90 96 74 81 57 52
57 53 49 47 37 37 47 52 54 48 22 8 12 21 15 18 19 3 4 13 10 7 5 2 3 16 24 20 18 19 20 14 11 6 5 5 9 8 4 7 60 105 93 62 45 57 57 78 59 59 45 51 52 50
53 48 45 39 31 38 47 47 51 32 14 8 10 19 20 16 18 18 20 16 5 10 2 3 2 7 6 5 2 8 7 8 7 3 1 1 5 2 6 24 64 73 60 50 60 41 46 61 70 67 45 44 55 62
48 45 40 30 28 39 43 43 43 21 9 8 5 7 6 10 7 18 16 15 10 3 6 4 2 4 2 3 4 3 3 2 1 1 3 5 3 2 16 39 81 82 63 63 71 78 72 48 51 50 48 48 47 44
44 41 33 23 28 37 42 42 31 11 11 12 7 8 3 9 25 16 6 4 3 2 5 9 10 1 8 8 10 10 7 2 2 5 12 3 2 45 51 59 65 87 76 89 80 95 88 37 32 23 33 38 40 35
41 36 25 19 27 33 34 36 16 10 15 12 7 4 17 20 11 7 4 6 7 7 12 13 15 5 8 6 3 11 3 5 5 2 3 7 8 47 61 59 70 85 94 74 81 95 97 27 3 11 14 22 27 26
37 30 18 18 22 31 28 23 22 9 7 11 5 4 12 7 3 4 7 10 4 6 10 9 8 9 11 11 7 15 6 6 8 7 7 9 12 54 56 60 64 64 74 73 79 91 102 108 88 79 69 45 17 10
34 25 16 16 21 30 26 17 18 15 12 12 6 2 4 5 5 7 5 9 8 12 31 30 18 5 6 11 12 3 9 6 14 6 5 4 33 50 50 55 61 66 52 65 75 72 90 92 94 99 91 79 75 69
32 25 16 19 27 28 19 8 14 23 7 5 3 10 3 5 6 7 10 11 31 39 49 12 5 10 7 3 8 7 7 11 6 9 6 8 36 40 42 47 57 63 68 52 55 67 66 71 77 79 75 68 75 80
30 20 17 28 25 21 7 12 11 18 7 6 2 3 6 24 33 36 36 35 42 47 49 28 13 16 6 7 7 7 8 7 4 4 4 24 28 34 44 46 47 53 57 56 45 46 62 62 67 64 54 61 65 71
25 16 28 37 24 11 3 5 10 11 13 14 10 13 25 24 26 30 33 35 47 50 44 19 9 6 10 6 8 11 6 5 5 2 11 15 27 31 37 44 37 45 46 48 43 41 36 48 52 43 48 59 65 66
21 16 30 36 21 3 7 6 5 2 3 3 9 18 15 19 22 28 30 36 43 32 11 11 11 9 8 5 5 5 4 8 25 11 13 21 23 24 27 38 38 34 35 43 26 35 40 33 32 42 52 45 48 46
17 25 26 26 20 2 2 7 5 7 9 6 7 24 20 19 20 23 27 34 34 36 26 8 18 18 9 9 10 11 27 31 31 37 4 15 19 23 29 33 37 27 21 31 28 26 31 33 32 34 39 33 34 40
19 21 15 17 16 11 5 4 6 7 4 5 6 16 18 11 15 12 23 25 28 31 13 14 10 9 10 15 17 23 26 26 32 36 25 32 31 29 27 29 32 34 18 24 25 38 31 28 30 33 38 34 40 34
21 15 11 10 12 8 7 3 9 10 5 7 9 13 8 6 6 14 11 18 19 23 15 7 7 14 14 9 10 10 18 21 22 24 24 28 30 36 22 26 29 29 27 23 33 32 29 35 32 27 24 26 29 28
10 13 12 8 6 4 6 8 4 6 8 7 14 11 9 18 15 14 5 7 17 6 8 11 9 3 8 9 4 7 8 16 14 24 18 23 32 32 25 25 22 25 26 29 27 25 28 34 40 29 26 25 30 27
12 11 5 7 6 3 9 1 10 4 6 12 16 9 9 11 9 7 6 5 12 12 11 9 5 4 13 18 16 9 12 10 15 18 15 17 24 29 24 25 18 20 30 26 26 24 24 27 26 28 35 21 30 28
6 6 6 6 5 4 9 9 9 8 10 6 7 6 7 2 5 2 6 5 10 14 13 6 7 14 15 20 22 20 14 9 15 19 16 14 20 24 24 24 13 14 20 30 27 26 26 25 22 20 16 31 25 26
15 5 8 9 7 7 9 9 14 8 8 10 8 7 2 6 3 4 8 4 12 13 8 2 4 17 14 15 2 15 6 10 17 21 18 19 20 22 24 26 22 19 21 28 23 22 24 24 23 28 28 21 36 23
5 5 5 11 10 12 14 6 10 11 11 13 9 6 11 15 4 14 14 21 23 18 10 2 10 14 10 14 26 22 15 15 17 19 20 15 14 17 18 23 16 16 22 31 26 26 25 22 23 17 23 30 32 27
1 9 12 9 6 9 5 14 14 1 8 13 11 8 6 8 5 5 8 25 29 3 3 3 7 14 8 10 8 6 9 12 13 11 7 10 9 13 11 14 22 26 11 20 20 24 25 23 23 23 21 25 28 27
5 12 21 19 17 19 14 11 2 6 6 7 8 4 3 4 8 10 5 26 28 4 0 6 5 13 7 5 7 10 8 10 0 14 4 9 9 11 11 8 13 15 15 11 18 14 15 20 19 21 19 18 22 21
14 21 12 27 10 30 14 10 8 6 5 10 13 10 8 2 6 7 12 16 4 8 6 16 15 10 10 10 5 11 5 10 6 13 9 14 10 15 17 11 18 14 2 6 13 9 12 9 13 14 13 16 16 16
15 19 24 28 26 14 23 19 12 17 28 24 10 8 11 13 14 16 4 9 4 6 20 15 3 6 13 2 4 11 2 5 7 13 18 16 19 23 17 14 18 15 16 10 12 15 15 10 8 11 13 10 13 10
29 25 21 27 25 8 14 20 23 26 29 28 13 19 24 21 9 17 23 23 18 15 12 16 14 16 20 19 23 36 30 20 17 16 20 15 14 11 14 15 12 10 12 14 13 12 16 14 12 12 12 9 9 14
9 14 15 23 13 15 10 8 14 14 17 25 22 24 22 17 27 29 23 25 25 21 25 27 25 31 31 26 18 18 28 28 26 18 17 14 10 12 17 11 9 12 10 10 12 12 12 10 11 13 14 13 12 12
4 8 19 21 18 9 12 11 10 19 11 26 18 20 18 15 9 11 20 21 23 24 26 24 27 29 25 23 19 18 11 7 11 21 14 14 19 10 12 15 13 12 13 12 10 11 12 11 9 10 10 12 12 13
13 23 18 10 12 13 6 10 5 15 12 13 11 7 10 19 14 11 21 15 18 18 18 19 18 18 21 18 16 9 12 15 19 24 28 29 15 13 10 13 18 14 13 12 12 12 12 12 12 11 9 9 11 11
Wind_Direction_500mb
327 328 325 324 327 327 328 330 326 328 329 331 329 329 327 327 325 301 297 305 282 254 289 291 280 270 284 281 321 339 333 14 350 13 5 338 358 349 321 354 342 130 175 215 291 340 2 346 3 56 56 57 42 29
329 329 326 327 329 330 331 330 328 330 332 330 331 327 326 325 318 295 302 326 326 259 284 311 324 339 286 276 287 324 297 330 33 352 1 342 321 347 324 15 339 26 70 241 2 5 38 337 321 23 26 33 30 25
333 330 325 330 332 333 332 331 330 332 332 332 332 328 335 349 328 193 274 342 344 300 319 332 17 359 31 2 274 302 335 358 351 355 315 318 329 3 344 359 352 340 353 335 335 333 348 318 356 0 360 348 354 3
331 324 330 333 334 334 333 333 332 334 334 337 334 357 15 14 71 99 77 19 10 334 321 315 349 24 38 277 263 281 291 317 338 349 341 351 337 19 330 316 293 310 359 339 303 322 347 319 319 331 335 335 342 317
326 327 332 334 334 335 336 334 335 336 338 342 16 25 26 69 90 83 50 356 357 7 332 319 351 16 8 21 71 14 315 328 348 3 15 1 338 345 325 279 325 6 337 315 280 303 288 280 291 300 314 310 317 327
327 329 333 335 336 336 338 337 339 341 342 12 57 39 66 89 72 76 318 319 332 352 71 359 355 25 45 61 51 42 22 45 18 26 354 344 337 359 352 315 282 320 307 286 279 278 283 281 284 281 282 282 294 308
327 331 334 337 335 337 339 342 342 345 358 53 80 38 70 69 58 56 328 321 335 100 71 236 58 0 29 46 44 33 37 40 45 54 29 343 340 5 346 298 314 314 311 309 305 283 278 292 275 279 269 268 266 283
328 333 335 336 336 339 340 346 344 350 9 77 84 49 70 67 40 11 5 23 101 82 157 283 193 199 71 92 76 16 38 45 39 46 17 288 304 214 261 301 337 349 10 18 12 356 292 294 290 273 261 261 265 265
333 335 334 335 340 341 341 348 347 353 31 61 64 38 45 30 3 336 327 334 37 83 345 36 3 325 234 151 162 131 132 105 205 223 198 155 295 27 303 342 6 2 15 7 9 2 345 311 289 269 255 252 245 247
336 333 333 338 346 344 343 345 345 352 344 344 5 25 332 291 326 310 286 312 313 166 239 216 202 12 223 171 208 162 183 222 0 112 144 116 79 6 10 14 15 14 17 15 8 356 338 319 250 270 237 244 245 252
336 333 333 343 350 351 351 352 354 351 352 0 7 310 337 337 341 336 286 218 167 231 212 228 174 213 223 225 228 202 166 162 38 73 34 5 350 359 2 13 12 16 22 22 18 10 19 62 91 287 255 233 244 263
338 337 332 343 354 1 355 359 7 347 2 345 359 258 341 338 338 343 335 302 276 279 297 261 186 247 176 178 185 180 221 177 70 47 41 357 338 349 360 9 11 7 16 26 28 32 29 39 51 57 64 58 47 335
343 342 333 335 338 343 351 352 359 352 296 293 314 264 330 275 55 116 263 302 310 321 315 346 10 304 154 223 237 11 38 81 105 54 347 321 328 353 4 12 11 13 5 21 33 39 48 47 44 49 52 53 64 65
344 342 332 332 335 339 348 9 4 354 327 251 249 337 185 316 318 23 11 344 348 337 317 314 279 204 221 141 23 47 56 36 51 19 2 287 339 3 4 5 9 6 12 13 36 44 49 56 56 57 54 54 57 58
344 346 356 349 344 348 33 70 23 351 324 300 236 261 339 7 18 19 8 353 347 326 315 309 269 50 64 41 29 27 44 33 47 297 252 316 353 359 6 9 7 8 8 19 31 47 55 56 60 58 59 63 62 63
343 348 354 351 349 15 64 329 23 351 357 3 335 24 28 13 3 7 6 359 341 335 346 44 58 44 50 54 36 26 44 325 286 244 305 347 5 5 10 7 4 10 10 17 35 43 49 55 56 56 54 55 58 59
333 330 340 348 348 49 30 342 219 295 91 3 295 31 57 33 10 17 15 359 352 353 357 19 22 26 42 74 69 88 11 6 18 2 4 351 346 349 5 6 359 6 5 23 37 53 54 50 53 55 62 61 57 52
313 318 322 335 347 270 303 335 284 266 182 55 325 26 59 66 31 23 25 18 18 10 357 53 64 29 36 32 25 18 22 15 352 345 36 23 18 14 16 2 358 5 9 20 40 55 56 60 58 51 46 61 62 60
325 325 318 330 345 334 324 338 298 258 188 104 328 52 1 352 42 51 44 29 45 35 23 24 53 46 51 45 17 10 20 7 333 337 14 13 1 356 11 6 359 5 29 42 48 49 46 62 65 62 55 51 51 61
327 327 327 317 341 319 267 239 281 274 60 348 360 17 331 272 312 46 59 63 47 54 41 45 67 80 58 14 15 9 351 358 341 345 355 359 346 342 11 358 2 13 18 42 58 45 36 36 32 53 52 47 44 49
333 334 335 334 275 288 300 309 354 23 334 326 295 294 291 312 101 42 351 114 76 73 77 78 58 190 256 221 244 181 300 356 345 326 337 358 345 351 5 1 11 13 25 22 48 53 32 20 30 39 45 65 55 62
311 322 314 297 289 325 277 334 294 307 259 264 290 318 294 287 96 43 298 251 123 131 149 183 225 209 245 216 216 219 232 352 344 0 1 359 350 353 2 356 21 23 20 16 31 55 53 33 27 35 33 47 54 61
334 316 296 252 270 278 269 273 262 227 206 249 123 263 229 278 89 123 242 221 135 171 167 191 275 301 290 255 253 224 219 310 3 17 8 24 1 2 349 353 32 39 21 22 18 31 40 36 38 43 33 32 41 57
337 297 304 315 238 245 269 232 231 257 256 261 221 246 104 243 221 215 256 115 115 150 173 317 9 13 324 272 100 157 127 43 32 30 48 28 11 2 0 13 54 39 19 30 25 24 28 30 35 45 40 33 20 70
291 251 251 255 244 257 264 252 253 253 284 287 290 232 199 204 349 352 305 120 121 114 128 63 360 354 4 18 140 108 81 69 56 36 32 33 21 18 18 25 54 34 22 21 20 20 28 28 28 50 47 44 51 51
53 219 196 272 217 232 318 359 49 151 263 307 327 346 64 72 96 90 334 334 355 95 107 75 358 344 344 26 52 58 49 16 33 31 38 25 59 51 17 18 26 10 20 13 28 29 33 26 28 44 52 47 47 57
267 238 210 231 262 283 75 334 178 187 219 255 280 318 91 290 97 181 291 257 273 253 310 130 54 312 344 75 48 39 19 353 12 13 292 96 79 48 23 73 33 42 37 42 37 34 27 20 24 38 47 48 53 57
247 293 297 286 288 91 136 257 271 266 228 223 269 267 169 25 64 255 291 354 186 142 211 334 336 290 293 297 338 323 350 21 71 35 61 82 75 37 38 51 46 48 54 22 43 29 51 32 45 43 42 42 38 41
248 264 295 294 295 120 194 183 237 240 234 247 282 56 61 109 110 165 33 359 44 46 7 356 330 349 8 101 345 24 319 72 53 57 40 39 56 53 48 47 50 57 66 69 69 50 35 51 78 81 49 45 30 26
236 246 240 268 272 213 217 201 267 293 314 359 59 122 117 89 75 60 49 21 14 13 13 11 24 41 42 45 54 62 56 53 57 52 25 59 64 45 31 37 44 52 53 64 57 38 40 40 42 41 61 63 38 19
235 311 292 307 320 304 298 311 296 346 38 59 40 29 45 63 75 52 34 10 36 46 36 60 55 52 45 38 40 40 55 56 58 72 72 67 54 33 18 35 52 66 51 55 58 45 42 45 48 54 58 48 32 27
186 192 242 283 323 10 0 353 329 318 59 57 64 114 137 189 125 63 37 39 40 43 46 52 60 54 57 50 61 98 119 98 42 360 2 342 338 38 51 60 56 52 40 30 39 44 50 47 51 58 50 41 47 35
311 294 297 334 317 307 308 206 337 355 112 110 135 128 119 94 64 75 28 49 55 51 54 58 63 78 62 43 38 30 26 32 44 36 40 35 62 103 91 79 55 30 24 40 52 51 46 49 47 46 50 48 48 37
Wind_Speed_850mb
44 48 52 58 62 65 65 61 58 53 50 48 46 45 46 37 22 18 27 26 25 13 34 27 17 18 19 11 7 31 21 18 13 16 9 7 7 11 9 8 21 7 6 5 5 8 10 44 29 30 7 39 44 52
42 48 57 61 62 63 59 53 51 49 50 51 52 52 47 28 14 10 15 14 19 31 27 45 29 23 24 31 25 12 11 28 17 8 9 7 13 2 20 11 24 11 10 5 21 8 4 22 36 30 49 36 43 46
45 55 59 61 60 56 52 48 48 49 54 56 53 46 30 14 6 4 4 12 18 10 20 16 19 26 13 9 11 11 9 25 25 24 16 7 11 14 10 9 20 23 26 10 17 21 34 43 38 59 67 50 41 35
48 56 57 58 57 51 46 46 49 54 57 54 43 21 19 15 11 14 5 10 16 8 5 6 27 31 19 6 11 14 24 26 25 21 9 5 7 25 8 13 7 10 23 36 24 21 51 42 49 62 68 69 61 38
52 56 54 55 53 46 41 46 53 57 55 42 16 19 20 15 21 15 1 6 12 9 6 17 17 27 24 23 5 1 12 26 27 15 6 5 11 10 10 10 6 24 24 15 19 66 45 67 77 69 65 70 59 58
56 55 52 52 46 40 43 51 56 55 44 16 14 23 22 23 15 6 5 8 13 6 3 6 13 35 29 15 22 28 17 13 7 6 8 15 15 15 9 7 12 55 72 64 63 64 93 95 90 96 74 81 57 52
57 53 49 47 37 37 47 52 54 48 22 8 12 21 15 18 19 3 4 13 10 7 5 2 3 16 24 20 18 19 20 14 11 6 5 5 9 8 4 7 60 105 93 62 45 57 57 78 59 59 45 51 52 50
53 48 45 39 31 38 47 47 51 32 14 8 10 19 20 16 18 18 20 16 5 10 2 3 2 7 6 5 2 8 7 8 7 3 1 1 5 2 6 24 64 73 60 50 60 41 46 61 70 67 45 44 55 62
48 45 40 30 28 39 43 43 43 21 9 8 5 7 6 10 7 18 16 15 10 3 6 4 2 4 2 3 4 3 3 2 1 1 3 5 3 2 16 39 81 82 63 63 71 78 72 48 51 50 48 48 47 44
44 41 33 23 28 37 42 42 31 11 11 12 7 8 3 9 25 16 6 4 3 2 5 9 10 1 8 8 10 10 7 2 2 5 12 3 2 45 51 59 65 87 76 89 80 95 88 37 32 23 33 38 40 35
41 36 25 19 27 33 34 36 16 10 15 12 7 4 17 20 11 7 4 6 7 7 12 13 15 5 8 6 3 11 3 5 5 2 3 7 8 47 61 59 70 85 94 74 81 95 97 27 3 11 14 22 27 26
37 30 18 18 22 31 28 23 22 9 7 11 5 4 12 7 3 4 7 10 4 6 10 9 8 9 11 11 7 15 6 6 8 7 7 9 12 54 56 60 64 64 74 73 79 91 102 108 88 79 69 45 17 10
34 25 16 16 21 30 26 17 18 15 12 12 6 2 4 5 5 7 5 9 8 12 31 30 18 5 6 11 12 3 9 6 14 6 5 4 33 50 50 55 61 66 52 65 75 72 90 92 94 99 91 79 75 69
32 25 16 19 27 28 19 8 14 23 7 5 3 10 3 5 6 7 10 11 31 39 49 12 5 10 7 3 8 7 7 11 6 9 6 8 36 40 42 47 57 63 68 52 55 67 66 71 77 79 75 68 75 80
30 20 17 28 25 21 7 12 11 18 7 6 2 3 6 24 33 36 36 35 42 47 49 28 13 16 6 7 7 7 8 7 4 4 4 24 28 34 44 46 47 53 57 56 45 46 62 62 67 64 54 61 65 71
25 16 28 37 24 11 3 5 10 11 13 14 10 13 25 24 26 30 33 35 47 50 44 19 9 6 10 6 8 11 6 5 5 2 11 15 27 31 37 44 37 45 46 48 43 41 36 48 52 43 48 59 65 66
21 16 30 36 21 3 7 6 5 2 3 3 9 18 15 19 22 28 30 36 43 32 11 11 11 9 8 5 5 5 4 8 25 11 13 21 23 24 27 38 38 34 35 43 26 35 40 33 32 42 52 45 48 46
17 25 26 26 20 2 2 7 5 7 9 6 7 24 20 19 20 23 27 34 34 36 26 8 18 18 9 9 10 11 27 31 31 37 4 15 19 23 29 33 37 27 21 31 28 26 31 33 32 34 39 33 34 40
19 21 15 17 16 11 5 4 6 7 4 5 6 16 18 11 15 12 23 25 28 31 13 14 10 9 10 15 17 23 26 26 32 36 25 32 31 29 27 29 32 34 18 24 25 38 31 28 30 33 38 34 40 34
21 15 11 10 12 8 7 3 9 10 5 7 9 13 8 6 6 14 11 18 19 23 15 7 7 14 14 9 10 10 18 21 22 24 24 28 30 36 22 26 29 29 27 23 33 32 29 35 32 27 24 26 29 28
10 13 12 8 6 4 6 8 4 6 8 7 14 11 9 18 15 14 5 7 17 6 8 11 9 3 8 9 4 7 8 16 14 24 18 23 32 32 25 25 22 25 26 29 27 25 28 34 40 29 26 25 30 27
12 11 5 7 6 3 9 1 10 4 6 12 16 9 9 11 9 7 6 5 12 12 11 9 5 4 13 18 16 9 12 10 15 18 15 17 24 29 24 25 18 20 30 26 26 24 24 27 26 28 35 21 30 28
6 6 6 6 5 4 9 9 9 8 10 6 7 6 7 2 5 2 6 5 10 14 13 6 7 14 15 20 22 20 14 9 15 19 16 14 20 24 24 24 13 14 20 30 27 26 26 25 22 20 16 31 25 26
15 5 8 9 7 7 9 9 14 8 8 10 8 7 2 6 3 4 8 4 12 13 8 2 4 17 14 15 2 15 6 10 17 21 18 19 20 22 24 26 22 19 21 28 23 22 24 24 23 28 28 21 36 23
5 5 5 11 10 12 14 6 10 11 11 13 9 6 11 15 4 14 14 21 23 18 10 2 10 14 10 14 26 22 15 15 17 19 20 15 14 17 18 23 16 16 22 31 26 26 25 22 23 17 23 30 32 27
1 9 12 9 6 9 5 14 14 1 8 13 11 8 6 8 5 5 8 25 29 3 3 3 7 14 8 10 8 6 9 12 13 11 7 10 9 13 11 14 22 26 11 20 20 24 25 23 23 23 21 25 28 27
5 12 21 19 17 19 14 11 2 6 6 7 8 4 3 4 8 10 5 26 28 4 0 6 5 13 7 5 7 10 8 10 0 14 4 9 9 11 11 8 13 15 15 11 18 14 15 20 19 21 19 18 22 21
14 21 12 27 10 30 14 10 8 6 5 10 13 10 8 2 6 7 12 16 4 8 6 16 15 10 10 10 5 11 5 10 6 13 9 14 10 15 17 11 18 14 2 6 13 9 12 9 13 14 13 16 16 16
15 19 24 28 26 14 23 19 12 17 28 24 10 8 11 13 14 16 4 9 4 6 20 15 3 6 13 2 4 11 2 5 7 13 18 16 19 23 17 14 18 15 16 10 12 15 15 10 8 11 13 10 13 10
29 25 21 27 25 8 14 20 23 26 29 28 13 19 24 21 9 17 23 23 18 15 12 16 14 16 20 19 23 36 30 20 17 16 20 15 14 11 14 15 12 10 12 14 13 12 16 14 12 12 12 9 9 14
9 14 15 23 13 15 10 8 14 14 17 25 22 24 22 17 27 29 23 25 25 21 25 27 25 31 31 26 18 18 28 28 26 18 17 14 10 12 17 11 9 12 10 10 12 12 12 10 11 13 14 13 12 12
4 8 19 21 18 9 12 11 10 19 11 26 18 20 18 15 9 11 20 21 23 24 26 24 27 29 25 23 19 18 11 7 11 21 14 14 19 10 12 15 13 12 13 12 10 11 12 11 9 10 10 12 12 13
13 23 18 10 12 13 6 10 5 15 12 13 11 7 10 19 14 11 21 15 18 18 18 19 18 18 21 18 16 9 12 15 19 24 28 29 15 13 10 13 18 14 13 12 12 12 12 12 12 11 9 9 11 11
Wind_Direction_850mb
327 328 325 324 327 327 328 330 326 328 329 331 329 329 327 327 325 301 297 305 282 254 289 291 280 270 284 281 321 339 333 14 350 13 5 338 358 349 321 354 342 130 175 215 291 340 2 346 3 56 56 57 42 29
329 329 326 327 329 330 331 330 328 330 332 330 331 327 326 325 318 295 302 326 326 259 284 311 324 339 286 276 287 324 297 330 33 352 1 342 321 347 324 15 339 26 70 241 2 5 38 337 321 23 26 33 30 25
333 330 325 330 332 333 332 331 330 332 332 332 332 328 335 349 328 193 274 342 344 300 319 332 17 359 31 2 274 302 335 358 351 355 315 318 329 3 344 359 352 340 353 335 335 333 348 318 356 0 360 348 354 3
331 324 330 333 334 334 333 333 332 334 334 337 334 357 15 14 71 99 77 19 10 334 321 315 349 24 38 277 263 281 291 317 338 349 341 351 337 19 330 316 293 310 359 339 303 322 347 319 319 331 335 335 342 317
326 327 332 334 334 335 336 334 335 336 338 342 16 25 26 69 90 83 50 356 357 7 332 319 351 16 8 21 71 14 315 328 348 3 15 1 338 345 325 279 325 6 337 315 280 303 288 280 291 300 314 310 317 327
327 329 333 335 336 336 338 337 339 341 342 12 57 39 66 89 72 76 318 319 332 352 71 359 355 25 45 61 51 42 22 45 18 26 354 344 337 359 352 315 282 320 307 286 279 278 283 281 284 281 282 282 294 308
327 331 334 337 335 337 339 342 342 345 358 53 80 38 70 69 58 56 328 321 335 100 71 236 58 0 29 46 44 33 37 40 45 54 29 343 340 5 346 298 314 314 311 309 305 283 278 292 275 279 269 268 266 283
328 333 335 336 336 339 340 346 344 350 9 77 84 49 70 67 40 11 5 23 101 82 157 283 193 199 71 92 76 16 38 45 39 46 17 288 304 214 261 301 337 349 10 18 12 356 292 294 290 273 261 261 265 265
333 335 334 335 340 341 341 348 347 353 31 61 64 38 45 30 3 336 327 334 37 83 345 36 3 325 234 151 162 131 132 105 205 223 198 155 295 27 303 342 6 2 15 7 9 2 345 311 289 269 255 252 245 247
336 333 333 338 346 344 343 345 345 352 344 344 5 25 332 291 326 310 286 312 313 166 239 216 202 12 223 171 208 162 183 222 0 112 144 116 79 6 10 14 15 14 17 15 8 356 338 319 250 270 237 244 245 252
336 333 333 343 350 351 351 352 354 351 352 0 7 310 337 337 341 336 286 218 167 231 212 228 174 213 223 225 228 202 166 162 38 73 34 5 350 359 2 13 12 16 22 22 18 10 19 62 91 287 255 233 244 263
338 337 332 343 354 1 355 359 7 347 2 345 359 258 341 338 338 343 335 302 276 279 297 261 186 247 176 178 185 180 221 177 70 47 41 357 338 349 360 9 11 7 16 26 28 32 29 39 51 57 64 58 47 335
343 342 333 335 338 343 351 352 359 352 296 293 314 264 330 275 55 116 263 302 310 321 315 346 10 304 154 223 237 11 38 81 105 54 347 321 328 353 4 12 11 13 5 21 33 39 48 47 44 49 52 53 64 65
344 342 332 332 335 339 348 9 4 354 327 251 249 337 185 316 318 23 11 344 348 337 317 314 279 204 221 141 23 47 56 36 51 19 2 287 339 3 4 5 9 6 12 13 36 44 49 56 56 57 54 54 57 58
344 346 356 349 344 348 33 70 23 351 324 300 236 261 339 7 18 19 8 353 347 326 315 309 269 50 64 41 29 27 44 33 47 297 252 316 353 359 6 9 7 8 8 19 31 47 55 56 60 58 59 63 62 63
343 348 354 351 349 15 64 329 23 351 357 3 335 24 28 13 3 7 6 359 341 335 346 44 58 44 50 54 36 26 44 325 286 244 305 347 5 5 10 7 4 10 10 17 35 43 49 55 56 56 54 55 58 59
333 330 340 348 348 49 30 342 219 295 91 3 295 31 57 33 10 17 15 359 352 353 357 19 22 26 42 74 69 88 11 6 18 2 4 351 346 349 5 6 359 6 5 23 37 53 54 50 53 55 62 61 57 52
313 318 322 335 347 270 303 335 284 266 182 55 325 26 59 66 31 23 25 18 18 10 357 53 64 29 36 32 25 18 22 15 352 345 36 23 18 14 16 2 358 5 9 20 40 55 56 60 58 51 46 61 62 60
325 325 318 330 345 334 324 338 298 258 188 104 328 52 1 352 42 51 44 29 45 35 23 24 53 46 51 45 17 10 20 7 333 337 14 13 1 356 11 6 359 5 29 42 48 49 46 62 65 62 55 51 51 61
327 327 327 317 341 319 267 239 281 274 60 348 360 17 331 272 312 46 59 63 47 54 41 45 67 80 58 14 15 9 351 358 341 345 355 359 346 342 11 358 2 13 18 42 58 45 36 36 32 53 52 47 44 49
333 334 335 334 275 288 300 309 354 23 334 326 295 294 291 312 101 42 351 114 76 73 77 78 58 190 256 221 244 181 300 356 345 326 337 358 345 351 5 1 11 13 25 22 48 53 32 20 30 39 45 65 55 62
311 322 314 297 289 325 277 334 294 307 259 264 290 318 294 287 96 43 298 251 123 131 149 183 225 209 245 216 216 219 232 352 344 0 1 359 350 353 2 356 21 23 20 16 31 55 53 33 27 35 33 47 54 61
334 316 296 252 270 278 269 273 262 227 206 249 123 263 229 278 89 123 242 221 135 171 167 191 275 301 290 255 253 224 219 310 3 17 8 24 1 2 349 353 32 39 21 22 18 31 40 36 38 43 33 32 41 57
337 297 304 315 238 245 269 232 231 257 256 261 221 246 104 243 221 215 256 115 115 150 173 317 9 13 324 272 100 157 127 43 32 30 48 28 11 2 0 13 54 39 19 30 25 24 28 30 35 45 40 33 20 70
291 251 251 255 244 257 264 252 253 253 284 287 290 232 199 204 349 352 305 120 121 114 128 63 360 354 4 18 140 108 81 69 56 36 32 33 21 18 18 25 54 34 22 21 20 20 28 28 28 50 47 44 51 51
53 219 196 272 217 232 318 359 49 151 263 307 327 346 64 72 96 90 334 334 355 95 107 75 358 344 344 26 52 58 49 16 33 31 38 25 59 51 17 18 26 10 20 13 28 29 33 26 28 44 52 47 47 57
267 238 210 231 262 283 75 334 178 187 219 255 280 318 91 290 97 181 291 257 273 253 310 130 54 312 344 75 48 39 19 353 12 13 292 96 79 48 23 73 33 42 37 42 37 34 27 20 24 38 47 48 53 57
247 293 297 286 288 91 136 257 271 266 228 223 269 267 169 25 64 255 291 354 186 142 211 334 336 290 293 297 338 323 350 21 71 35 61 82 75 37 38 51 46 48 54 22 43 29 51 32 45 43 42 42 38 41
248 264 295 294 295 120 194 183 237 240 234 247 282 56 61 109 110 165 33 359 44 46 7 356 330 349 8 101 345 24 319 72 53 57 40 39 56 53 48 47 50 57 66 69 69 50 35 51 78 81 49 45 30 26
236 246 240 268 272 213 217 201 267 293 314 359 59 122 117 89 75 60 49 21 14 13 13 11 24 41 42 45 54 62 56 53 57 52 25 59 64 45 31 37 44 52 53 64 57 38 40 40 42 41 61 63 38 19
235 311 292 307 320 304 298 311 296 346 38 59 40 29 45 63 75 52 34 10 36 46 36 60 55 52 45 38 40 40 55 56 58 72 72 67 54 33 18 35 52 66 51 55 58 45 42 45 48 54 58 48 32 27
186 192 242 283 323 10 0 353 329 318 59 57 64 114 137 189 125 63 37 39 40 43 46 52 60 54 57 50 61 98 119 98 42 360 2 342 338 38 51 60 56 52 40 30 39 44 50 47 51 58 50 41 47 35
311 294 297 334 317 307 308 206 337 355 112 110 135 128 119 94 64 75 28 49 55 51 54 58 63 78 62 43 38 30 26 32 44 36 40 35 62 103 91 79 55 30 24 40 52 51 46 49 47 46 50 48 48 37